Home > Weather > Chula Vista > Past weeks

Flag for USA Past Weather in Chula Vista, California, USA — Yesterday and Last 2 Weeks

Now
71 °F

Clear.


Feels Like: 69 °F
Forecast: 69 / 82 °F
Wind: No wind

Location: Brown Field Municipal Airport

Current Time: Jul 28, 2016 at 1:55:46 AM

Latest Report: Jul 28, 2016 at 12:53 AM


Visibility: 10 mi

Pressure: 29.89 "Hg

Humidity: 87%

Dew Point: 67 °F

Location of Chula VistaLocation

Past Weather in Chula Vista — Graph

°F

Chula Vista Temperature Yesterday

Maximum temperature yesterday: 87 °F (at 11:53 AM)
Minimum temperature yesterday: 69 °F (at 2:53 AM)
Average temperature yesterday: 77 °F

High & Low Weather Summary for the Past Weeks

 TemperatureHumidityPressure
High93 °F (Jul 22, 11:53 AM)97% (Jul 22, 6:53 AM)30.03 "Hg (Jul 22, 6:53 AM)
Low61 °F (Jul 13, 12:53 AM)28% (Jul 22, 1:53 PM)29.79 "Hg (Jul 23, 4:53 AM)
Average74 °F71%29.92 "Hg
* Reported Jul 12 11:53 PM — Jul 27 11:53 PM, Chula Vista, Weather by CustomWeather, © 2016

Note: Actual official high and low records may vary slightly from our data, if they occured in-between our weather recording intervals... More about our weather records

Advertising

Chula Vista Weather History for the Previous 24 Hours

Scroll right to see more
 ConditionsComfort  
Time TempWeatherWind HumidityBarometerVisibility
11:53 PM
Wed, Jul 27
71 °FClear.No wind84%29.89 "Hg10 mi
10:53 PM72 °FClear.No wind81%29.89 "Hg10 mi
9:53 PM74 °FClear.No wind74%29.90 "Hg10 mi
8:53 PM74 °FClear.No wind74%29.88 "Hg10 mi
7:53 PM76 °FSunny.3 mph62%29.88 "Hg10 mi
6:53 PM80 °FSunny.3 mph45%29.87 "Hg10 mi
5:53 PM80 °FSunny.8 mph54%29.88 "Hg10 mi
4:53 PM82 °FSunny.8 mph48%29.88 "Hg10 mi
3:53 PM85 °FSunny.8 mph43%29.89 "Hg10 mi
2:53 PM85 °FSunny.8 mph45%29.90 "Hg10 mi
1:53 PM85 °FSunny.10 mph48%29.91 "Hg10 mi
12:53 PM86 °FSunny.9 mph45%29.91 "Hg10 mi
11:53 AM87 °FSunny.8 mph43%29.92 "Hg10 mi
10:53 AM85 °FSunny.10 mph51%29.92 "Hg10 mi
9:53 AM83 °FSunny.6 mph55%29.91 "Hg10 mi
8:53 AM78 °FSunny.No wind66%29.90 "Hg10 mi
7:53 AM73 °FSunny.No wind81%29.91 "Hg10 mi
6:53 AM71 °FClear.No wind87%29.89 "Hg8 mi
5:53 AM69 °FClear.No wind87%29.88 "Hg9 mi
4:53 AM69 °FClear.No wind87%29.86 "Hg9 mi
3:53 AM70 °FClear.No wind84%29.85 "Hg10 mi
3:00 AM70 °FClear.No wind84%29.87 "Hg7 mi
2:53 AM69 °FFog.No wind87%29.85 "Hg2 mi
1:53 AM70 °FClear.No wind84%29.85 "Hg10 mi
Weather by CustomWeather, © 2016

See weather overviewHow to use our weather pages